NOAA 16 DEB, 41071

Orbit data source: Space-Track

NOAA 16 DEB, 41071 is space debris in SSO originally from a launch on Thu, 21 Sep 2000 UTC launched from the Air Force Western Test Range (AFWTR). Debris objects in space refer to the collection of defunct objects orbiting the Earth. Examples of debris include non-operational satellites, rocket bodies, and fragments generated from explosions, collisions, or faulty payload assembly.

Loading next visibility...
Identifier
41071, 2000-055AE
Orbit
SSO
Country
Flag of USUS
Related business
Manufacturer
Unknown
Mission
Spacecraft
Bus & Motor
Unknown
Mass
Unknown
Launch date (UTC)
2000-09-21 (25 years ago)
Launch vehicle
Unknown
Launch site
Air Force Western Test Range (AFWTR)
Object type
Payload
Rocket body
Debris
Shape & HBR
Unknown
Radar Cross Section
Small (<0.1 m²)

Expand to show TLE details & history
Last TLE update: 23 hours ago

TLE from 23 hours ago
0 NOAA 16 DEB
1 41071U 00055AE  25261.22220306  .00003291  00000-0  13601-2 0  9994
2 41071  98.8154   1.6662 0010352  75.6388 284.5941 14.27378479507040
Epoch: 2025-09-18T05:19Z
TLE epoch observation values (Epoch: 2025-09-18T05:19:58.344Z)
Latitude
0.00001°
Longitude
-75.7138°
Altitude
801.562 km
Speed
7.454 km/s
True Right ascension
00h 06m 39s
True Declination
0° 00' 00"
Sunlit
Object was in full shadow at epoch
Visualization orbit readout
Latitude
Unknown
Longitude
Unknown
Altitude
Unknown
Speed
Unknown
Apparent Right ascension
Unknown
Apparent Declination
Unknown
Sunlit
N/A
Visualization observer readout
Local Sidereal Time
21:40:44
Azimuth
Unknown
Elevation
Unknown
Doppler factor
Unknown
Orbital elements
Apogee altitude
805.089 km
Perigee altitude
790.232 km
Semi-major axis
7,175.798 km
Eccentricity
0.00104
Inclination
98.8154°
RAAN
1.6662°
Arg. of periapsis
75.6388°
True anomaly
284.47926°
Mean anomaly
284.5941°
Eccentric anomaly
284.53669°
Mean motion
3.57057 °/min
Orbital period
100.82 mins
BSTAR
0.0013601
Loading maneuver chart data...
Computing Atmospheric mass density...
Loading historical data...
Loading historical data...
Loading historical data...
Loading historical data...
Loading historical data...
Loading historical data...
Loading historical data...

Documentation

Showing up to 5 results
|